Погода в Казанской

Россия / Краснодарский край     45°24′28″N   40°26′28″E
темп.,
°C
ветер,
м/с
пор.,
м/с
влажн.,
%
обл.,
%
осадки,
мм/ч
давл.,
гПа
погр.,
м
11 апреля, вс
вс1100:00+5юз1192100 0.3 102236
03:00+5св1291100 0.3 102085
06:00+6ссв2392100 0.0 102087
09:00+7св3694100 0.0 1020360
12:00+8всв4587100 0.0 1019512
15:00+10всв3685100 0.0 1019603
18:00+10св2287100 0.0 101849
21:00+9ссв2593100 0.0 1018147
12 апреля, пн
пн1200:00+9с2293100 0.0 101837
03:00+8з3595100 0.3 1018146
06:00+8з51194100 1.0 1019415
09:00+8з51188100 1.7 1021559
12:00+9з4990100 0.4 1021538
15:00+9зсз1392100 0.5 1022191
18:00+8ю1193100 0.1 102222
21:00+8юз2397100 0.1 102268
13 апреля, вт
вт1300:00+8зюз2296100 0.0 102233
03:00+9зюз2296100 0.1 102263
06:00+8зюз3697100 0.4 1022242
09:00+8з4794100 0.6 1023314
12:00+9сз3488100 0.0 1023303
15:00+11ссз1282100 0.0 1022564
18:00+11с1187100 0.0 102129
21:00+10св2292100 0.0 102121
14 апреля, ср
ср1400:00+9с1194100 0.0 102030
03:00+9с2395100 0.1 101896
06:00+9зюз2398100 1.6 1018106
09:00+9з3698100 3.9 1018293
12:00+10з4693100 0.1 1018433
15:00+11зсз458793 0.1 1018518
18:00+11з1287100 0.0 1018194
21:00+9юз119322 0.0 101810
15 апреля, чт
чт1500:00+8ю1193100 0.0 101710
03:00+7юв119299 0.0 101710
06:00+7вюв229377 0.0 101625
09:00+13вюв23745 0.0 1016390
12:00+17в23565 0.0 1014952
15:00+19юз234619 0.0 10141620
18:00+14зюз128286 0.4 101572
21:00+11зюз11932 0.4 101514